Voltar ao catálogo

DELTA 1 DEB

AtivoPO
NORAD 21680·DEBRIS·🇺🇸 United States

Lançado Jun 12, 1975 de Vandenberg Space Force Base

Loading…

Próximas Passagens (próximas 24 horas)

TLE

AtualizadoSource: Space-Track

Época: Sep 14, 2026, 07:12 UTC

1 21680U 75052JG  26257.30063551 -.00000105  00000-0 -26275-3 0  9994
2 21680  99.6078  16.5192 0381556 107.2991 284.9956 12.72782045634441

Acompanhe DELTA 1 DEB em tempo real com AllMySat

Download on the App Store